| time (UTC) | temp F | wind direction | speed MPH | gust MPH | rain 1hr in | rain 24hr in | rain mn in | humidity % | barometer mb |
| 20260505060053 | 40 | 336 | 0.0 | 6.0 | 0.00 | 0.00 | 0.00 | 65 | 1011.8 |
| 20260505054533 | 39 | 276 | 0.0 | 0.0 | 0.00 | 0.00 | 0.00 | 70 | 1011.8 |
| 20260505053032 | 40 | 292 | 0.0 | 0.0 | 0.00 | 0.00 | 0.00 | 68 | 1011.8 |
| 20260505051530 | 41 | 15 | 0.0 | 1.0 | 0.00 | 0.00 | 0.00 | 63 | 1011.8 |
| 20260505041524 | 42 | 343 | 0.0 | 1.0 | 0.00 | 0.00 | 0.00 | 57 | 1011.7 |
| 20260505040025 | 42 | 30 | 0.0 | 0.0 | 0.00 | 0.00 | 0.00 | 56 | 1011.4 |
| 20260505034521 | 42 | 338 | 0.0 | 3.0 | 0.00 | 0.00 | 0.00 | 56 | 1011.3 |
| 20260505033020 | 42 | 347 | 0.0 | 0.0 | 0.00 | 0.00 | 0.00 | 57 | 1011.0 |
| 20260505031518 | 42 | 17 | 0.0 | 6.0 | 0.00 | 0.00 | 0.00 | 57 | 1010.9 |
| 20260505030015 | 42 | 348 | 0.0 | 2.0 | 0.00 | 0.00 | 0.00 | 57 | 1010.6 |
| 20260505024513 | 43 | 24 | 0.0 | 3.0 | 0.00 | 0.00 | 0.00 | 53 | 1010.2 |
| 20260505023010 | 42 | 18 | 0.0 | 1.0 | 0.00 | 0.00 | 0.00 | 56 | 1009.8 |
| 20260505021509 | 42 | 19 | 0.0 | 4.0 | 0.00 | 0.00 | 0.00 | 57 | 1009.7 |
| 20260505020006 | 43 | 24 | 0.0 | 3.0 | 0.00 | 0.00 | 0.00 | 54 | 1009.5 |
| 20260505014505 | 44 | 38 | 1.0 | 6.0 | 0.00 | 0.00 | 0.00 | 51 | 1009.2 |
| 20260505013002 | 45 | 21 | 1.0 | 4.0 | 0.00 | 0.00 | 0.00 | 49 | 1008.8 |
| 20260505011601 | 45 | 27 | 1.0 | 4.0 | 0.00 | 0.00 | 0.00 | 50 | 1008.6 |
| 20260505010103 | 45 | 5 | 1.0 | 11.0 | 0.00 | 0.00 | 0.00 | 49 | 1008.4 |
| 20260505004557 | 46 | 11 | 0.0 | 2.0 | 0.00 | 0.00 | 0.00 | 49 | 1008.2 |
| 20260505003100 | 47 | 59 | 0.0 | 3.0 | 0.00 | 0.00 | 0.00 | 51 | 1008.0 |
| 20260505001558 | 48 | 9 | 0.0 | 2.0 | 0.00 | 0.00 | 0.00 | 49 | 1007.9 |
| 20260505000057 | 49 | 36 | 0.0 | 3.0 | 0.00 | 0.00 | 0.00 | 50 | 1007.8 |
| 20260504234551 | 49 | 17 | 0.0 | 4.0 | 0.00 | 0.00 | 0.00 | 49 | 1007.4 |
| 20260504233051 | 50 | 73 | 0.0 | 3.0 | 0.00 | 0.00 | 0.00 | 48 | 1007.2 |
| 20260504231549 | 50 | 76 | 1.0 | 2.0 | 0.00 | 0.00 | 0.00 | 47 | 1006.8 |
| 20260504230049 | 50 | 348 | 0.0 | 5.0 | 0.00 | 0.00 | 0.00 | 48 | 1006.7 |
| 20260504224548 | 51 | 60 | 0.0 | 3.0 | 0.00 | 0.00 | 0.00 | 49 | 1006.7 |
| 20260504223100 | 51 | 333 | 0.0 | 2.0 | 0.00 | 0.00 | 0.00 | 46 | 1006.6 |
| 20260504221547 | 52 | 329 | 0.0 | 4.0 | 0.00 | 0.00 | 0.00 | 46 | 1006.6 |
| 20260504220046 | 52 | 19 | 0.0 | 3.0 | 0.00 | 0.00 | 0.00 | 47 | 1006.6 |
| 20260504214545 | 53 | 60 | 0.0 | 5.0 | 0.00 | 0.00 | 0.00 | 45 | 1006.5 |
| 20260504213044 | 51 | 11 | 0.0 | 4.0 | 0.00 | 0.00 | 0.00 | 46 | 1006.8 |
| 20260504211606 | 51 | 10 | 0.0 | 2.0 | 0.00 | 0.00 | 0.00 | 47 | 1006.7 |
| 20260504210044 | 51 | 21 | 0.0 | 5.0 | 0.00 | 0.00 | 0.00 | 46 | 1006.6 |
| 20260504204537 | 51 | 53 | 0.0 | 2.0 | 0.00 | 0.00 | 0.00 | 48 | 1006.7 |
| 20260504203036 | 51 | 360 | 0.0 | 2.0 | 0.00 | 0.00 | 0.00 | 46 | 1006.7 |
| 20260504201536 | 51 | 52 | 0.0 | 1.0 | 0.00 | 0.00 | 0.00 | 46 | 1006.6 |
| 20260504200034 | 51 | 355 | 0.0 | 1.0 | 0.00 | 0.00 | 0.00 | 45 | 1006.7 |
| 20260504194531 | 50 | 355 | 0.0 | 1.0 | 0.00 | 0.00 | 0.00 | 46 | 1006.7 |
| 20260504193030 | 50 | 346 | 0.0 | 10.0 | 0.00 | 0.00 | 0.00 | 47 | 1006.8 |
| 20260504191534 | 50 | 341 | 0.0 | 3.0 | 0.00 | 0.00 | 0.00 | 47 | 1006.9 |
| 20260504190028 | 50 | 28 | 0.0 | 6.0 | 0.00 | 0.00 | 0.00 | 49 | 1006.9 |
| 20260504184536 | 48 | 340 | 0.0 | 2.0 | 0.00 | 0.00 | 0.00 | 49 | 1007.1 |
| 20260504183026 | 48 | 19 | 0.0 | 2.0 | 0.00 | 0.00 | 0.00 | 49 | 1007.1 |
| 20260504181530 | 48 | 360 | 1.0 | 4.0 | 0.00 | 0.00 | 0.00 | 49 | 1007.1 |
| 20260504180025 | 48 | 11 | 0.0 | 9.0 | 0.00 | 0.00 | 0.00 | 49 | 1007.1 |
| 20260504174524 | 48 | 342 | 0.0 | 4.0 | 0.00 | 0.00 | 0.00 | 49 | 1007.1 |
| 20260504173022 | 49 | 38 | 1.0 | 9.0 | 0.00 | 0.00 | 0.00 | 48 | 1007.2 |
| 20260504171522 | 48 | 20 | 0.0 | 6.0 | 0.00 | 0.00 | 0.00 | 51 | 1006.8 |
| 20260504081509 | 45 | 213 | 0.0 | 3.0 | 0.00 | 0.00 | 0.00 | 52 | 1003.7 |
| 20260504070115 | 46 | 209 | 0.0 | 1.0 | 0.00 | 0.00 | 0.00 | 50 | 1004.0 |